Regional Weather Roundup
Issued by NWS Spokane, WA

Home | Current Version | Previous Version | Text Only | Print | Product List | Glossary On
Versions: 1 2 3 4 5 6 7 8 9 10 11 12 13 14 15 16 17 18 19 20 21 22 23 24 25 26 27 28 29 30 31 32 33 34 35 36 37 38 39 40 41 42 43 44 45 46 47 48 49 50
000
NZUS01 KOTX 242005
RWROTX
EASTERN WASHINGTON/NORTHERN IDAHO ROUNDUP
NATIONAL WEATHER SERVICE, SPOKANE WA
100 PM PDT THU JUL 24 2014

Note: "fair" indicated few or no clouds below 12,000 feet with no
significant weather and/or obstructions to visibility.

...NORTHEAST WASHINGTON AND NORTHERN IDAHO PANHANDLE...

CITY           SKY/WX    TMP DP  RH WIND       PRES   REMARKS
SPOKANE INTL   CLOUDY    64  41  42 SW21G29   30.11F
SPOKANE DOWNTO CLOUDY    67  41  38 SW18G26   30.12F
COEUR D ALENE  CLOUDY    64  45  48 W10G22    30.11F
DEER PARK      CLOUDY    63  44  50 SW18G30   30.11F
SANDPOINT      CLOUDY    54  50  87 SW5       30.11S

...SOUTHEAST WASHINGTON AND SOUTHERN IDAHO PANHANDLE...

CITY           SKY/WX    TMP DP  RH WIND       PRES   REMARKS
WALLA WALLA    LGT RAIN  74  41  30 SW16G30   30.18S
PULLMAN/MOSCOW MOSUNNY   65  40  39 W17G25    30.18S
LEWISTON       MOSUNNY   73  40  30 W8        30.13F
LOWELL           N/A     74  42  31 CALM      30.15F

...COLUMBIA BASIN...

CITY           SKY/WX    TMP DP  RH WIND       PRES   REMARKS
EPHRATA        MOSUNNY   73  43  33 SW16G24   30.09S
MOSES LAKE     MOSUNNY   75  42  30 SW17G25   30.10S
TRI CITIES     SUNNY     76  46  34 SW20G28   30.14F
HERMISTON      SUNNY     76  43  30 W14G24    30.15F
PENDLETON      MOSUNNY   72  40  31 W23G31    30.17F

...EAST SLOPES CASCADES...

CITY           SKY/WX    TMP DP  RH WIND       PRES   REMARKS
THE DALLES     MOSUNNY   73  51  46 NW14G23   30.20S
YAKIMA         MOSUNNY   76  43  30 W13G25    30.11S
ELLENSBURG     MOSUNNY   71  50  47 NW17G25   30.13S
WENATCHEE      SUNNY     73  44  35 W15G23    30.08S
OMAK           CLOUDY    68  45  43 SE16G23   30.04F

...SOUTHERN BRITISH COLUMBIA...

CITY           SKY/WX    TMP DP  RH WIND       PRES   REMARKS

...WESTERN MONTANA...

CITY           SKY/WX    TMP DP  RH WIND       PRES   REMARKS
MISSOULA       SUNNY     68  36  30 W18G25    30.13S

...NEIGHBORING CITIES...

CITY           SKY/WX    TMP DP  RH WIND       PRES   REMARKS
SEATTLE        PTSUNNY   65  54  67 SW12G21   30.20R



USA.gov is the U.S. government's official web portal to all federal, state and local government web resources and services.